This is the latest recevied weather packets stored in our database for station/object KC3VCX. If no packets are shown the sender has not sent any weather packets the latest 10 day(s).
| Time | Temp. | Humidity | Pressure | Rain* | Wind** | Luminosity | Snow |
|---|---|---|---|---|---|---|---|
| 1777300523 | 16.67° C | 55% | 1024.1 hPa | 0 mm | - | 611 W/m² | - |
| 1777300220 | 16.67° C | 55% | 1024.3 hPa | 0 mm | - | 599 W/m² | - |
| 1777299916 | 15° C | 56% | 1024 hPa | 0 mm | - | 586 W/m² | - |
| 1777299613 | 15° C | 57% | 1024.5 hPa | 0 mm | - | 576 W/m² | - |
| 1777299311 | 15° C | 57% | 1024.6 hPa | 0 mm | - | 564 W/m² | - |
| 1777299007 | 14.44° C | 58% | 1024.4 hPa | 0 mm | - | 548 W/m² | - |
| 1777298705 | 14.44° C | 58% | 1024.5 hPa | 0 mm | - | 532 W/m² | - |
| 1777298401 | 15° C | 59% | 1024.5 hPa | 0 mm | - | 433 W/m² | - |
| 1777298097 | 14.44° C | 60% | 1024.5 hPa | 0 mm | - | 510 W/m² | - |
| 1777297797 | 13.89° C | 61% | 1024.6 hPa | 0 mm | - | 502 W/m² | - |
| 1777297496 | 13.89° C | 61% | 1024.7 hPa | 0 mm | - | 482 W/m² | - |
| 1777297192 | 13.33° C | 62% | 1024.6 hPa | 0 mm | - | 464 W/m² | - |
| 1777296890 | 13.33° C | 63% | 1024.5 hPa | 0 mm | - | 447 W/m² | - |
| 1777296586 | 12.78° C | 63% | 1024.9 hPa | 0 mm | - | 431 W/m² | - |
| 1777296251 | 12.78° C | 63% | 1024.6 hPa | 0 mm | - | 410 W/m² | - |
| 1777295947 | 12.22° C | 65% | 1024.6 hPa | 0 mm | - | 393 W/m² | - |
| 1777295645 | 12.22° C | 64% | 1024.6 hPa | 0 mm | - | 377 W/m² | - |
| 1777295342 | 12.22° C | 65% | 1024.5 hPa | 0 mm | - | 361 W/m² | - |
| 1777295039 | 11.67° C | 67% | 1024.6 hPa | 0 mm | - | 347 W/m² | - |
| 1777294736 | 11.67° C | 70% | 1024.5 hPa | 0 mm | - | 55 W/m² | - |
| 1777294425 | 11.67° C | 70% | 1024.7 hPa | 0 mm | - | 303 W/m² | - |
| 1777294123 | 11.11° C | 71% | 1024.5 hPa | 0 mm | - | 286 W/m² | - |
| 1777293819 | 11.11° C | 71% | 1024.8 hPa | 0 mm | - | 271 W/m² | - |
| 1777293514 | 10° C | 73% | 1024.6 hPa | 0 mm | - | 255 W/m² | - |
| 1777293210 | 9.44° C | 77% | 1024.9 hPa | 0 mm | - | 197 W/m² | - |
* Rain latest hour (hover to see other rain measurements)
** Current wind speed in m/s (hover to see current wind gust speed)